Location: Schommer Observatory
(40.5200°N, 74.4500°W)
Time: 06:01:47
(UTC-05:00)

Vanguard 2 Rocket - All Passes

Search period start: 17 January 2018 00:00
Search period end: 27 January 2018 00:00
Orbit: 556 x 3326 km, 32.9° (Epoch: 16 January)

Date Brightness Start Highest point End Pass type
(mag) Time Alt. Az. Time Alt. Az. Time Alt. Az.
17 Jan - 07:21:05 10° SSW 07:28:21 21° SSE 07:33:28 10° ESE daylight
17 Jan - 09:35:00 10° SW 09:41:48 34° S 09:46:16 10° ESE daylight
17 Jan - 11:49:47 10° WSW 11:54:20 31° S 11:57:55 10° SE daylight
17 Jan - 14:05:02 10° SW 14:06:23 11° SSW 14:07:43 10° S daylight
18 Jan - 06:21:14 10° SSW 06:28:32 18° SSE 06:33:56 10° ESE visible
18 Jan - 08:34:23 10° SW 08:42:29 33° S 08:47:36 10° ESE daylight
18 Jan - 10:49:36 10° WSW 10:55:23 37° S 10:59:26 10° ESE daylight
18 Jan - 13:04:34 10° WSW 13:07:30 17° SSW 13:10:12 10° SSE daylight
19 Jan - 05:22:04 10° S 05:28:28 15° SSE 05:33:35 10° ESE visible
19 Jan - 07:33:39 10° SW 07:42:55 30° SSE 07:48:48 10° ESE daylight
19 Jan - 09:49:01 10° WSW 09:56:18 40° S 10:00:55 10° ESE daylight
19 Jan - 12:04:24 10° WSW 12:08:42 26° SSW 12:12:06 10° SE daylight
20 Jan - 04:24:56 10° SSE 04:28:11 11° SSE 04:31:07 10° SE visible
20 Jan - 06:32:57 10° SSW 06:43:06 27° SSE 06:49:45 10° ESE visible
20 Jan - 08:48:07 10° WSW 08:57:01 41° S 09:02:23 10° ESE daylight
20 Jan - 11:04:01 10° WSW 11:09:48 35° SSW 11:13:50 10° SE daylight
20 Jan - 13:20:30 10° SW 13:21:42 11° SSW 13:22:51 10° SSW daylight
21 Jan - 05:32:32 10° SSW 05:43:01 24° SSE 05:50:16 10° ESE visible
21 Jan - 07:46:57 10° SW 07:57:27 40° S 08:03:44 10° ESE daylight
21 Jan - 10:03:17 10° WSW 10:10:45 42° S 10:15:27 10° ESE daylight
21 Jan - 12:19:17 10° WSW 12:22:55 19° SSW 12:25:55 10° SSE daylight
22 Jan - 04:32:44 10° S 04:42:40 19° SSE 04:50:08 10° ESE visible
22 Jan - 06:45:42 10° SW 06:57:37 37° SSE 07:04:52 10° E visible
22 Jan - 09:02:09 10° WSW 09:11:29 47° S 09:17:00 10° ESE daylight
22 Jan - 11:18:36 10° W 11:24:07 29° SSW 11:28:02 10° SE daylight
23 Jan - 03:34:07 10° S 03:42:07 15° SSE 03:48:45 10° ESE visible
23 Jan - 05:44:35 10° SW 05:57:29 33° SSE 06:05:44 10° E visible
23 Jan - 08:00:42 10° WSW 08:11:56 48° S 08:18:25 10° ESE daylight
23 Jan - 10:17:40 10° W 10:25:08 39° SSW 10:29:51 10° SE daylight
23 Jan - 12:34:58 10° WSW 12:36:59 12° SW 12:38:48 10° S daylight
24 Jan - 02:40:19 10° SE 02:41:26 10° SE 02:42:32 10° SE visible
24 Jan - 04:43:50 10° SSW 04:57:04 29° SSE 05:06:10 10° E visible
24 Jan - 06:59:04 10° SW 07:12:06 46° S 07:19:40 10° E daylight
24 Jan - 09:16:24 10° WSW 09:25:55 48° S 09:31:29 10° ESE daylight
24 Jan - 11:33:24 10° WSW 11:38:15 22° SSW 11:41:51 10° SSE daylight
25 Jan - 03:43:44 10° SSW 03:56:27 24° SSE 04:05:58 10° ESE visible
25 Jan - 05:57:27 10° SW 06:11:55 43° SSE 06:20:41 10° E visible
25 Jan - 08:14:45 10° WSW 08:26:23 53° S 08:32:59 10° ESE daylight
25 Jan - 10:32:12 10° W 10:39:23 33° SSW 10:44:02 10° SE daylight
26 Jan - 02:44:44 10° S 02:55:40 18° SE 03:04:41 10° ESE visible
26 Jan - 04:56:05 10° SW 05:11:26 39° SSE 05:21:23 10° E visible
26 Jan - 07:12:50 10° WSW 07:26:32 54° S 07:34:18 10° E daylight
26 Jan - 09:30:46 10° W 09:40:15 44° SSW 09:45:52 10° SE daylight
26 Jan - 11:48:47 10° WSW 11:52:11 15° SW 11:54:59 10° S daylight
